Regional Weather Roundup
Issued by NWS

Home | Current Version | Previous Version | Graphics & Text | Print | Product List | Glossary On
Versions: 1 2 3 4 5 6 7 8 9 10 11 12 13 14 15 16 17 18 19 20 21 22 23 24 25 26 27 28 29 30 31 32 33 34 35 36 37 38 39 40 41 42 43 44 45 46 47 48 49 50
850
ASUS45 KBOI 200710
RWRID

IDAHO REGIONAL WEATHER ROUNDUP
NATIONAL WEATHER SERVICE BOISE ID
1200 AM MST MON FEB 20 2017

NOTE: "FAIR" INDICATES FEW OR NO CLOUDS BELOW 12000 FEET
WITH NO SIGNIFICANT WEATHER AND/OR OBSTRUCTIONS TO VISIBILITY

IDZ012-014-200800-
SOUTHWEST IDAHO


CITY           SKY/WX    TMP DP  RH WIND       PRES   REMARKS
BOISE          MOCLDY    41  33  73 SE12      29.78F
CALDWELL       MOCLDY    40  35  83 SE6       29.79F
MOUNTAIN HOME  CLOUDY    38  38 100 SE15      29.81S WCI  29
$$

IDZ016-017-200800-
SOUTHCENTRAL IDAHO


CITY           SKY/WX    TMP DP  RH WIND       PRES   REMARKS
JEROME           N/A    N/A N/A N/A MISG      29.84F
TWIN FALLS     NOT AVBL
$$

IDZ019>023-200800-
SOUTHEAST IDAHO


CITY           SKY/WX    TMP DP  RH WIND       PRES   REMARKS
IDAHO FALLS    CLOUDY    32  30  92 S7        29.89S WCI  26
POCATELLO      CLEAR     31  28  89 E5        29.89S WCI  26
REXBURG        CLOUDY    32  29  88 SW5       29.89R WCI  27
$$

IDZ006-010-011-018-031-032-200800-
CENTRAL IDAHO MOUNTAINS


CITY           SKY/WX    TMP DP  RH WIND       PRES   REMARKS
MCCALL         CLOUDY    31  29  92 S3        29.74R
HAILEY         MOCLDY    30  28  93 NW7       29.87S WCI  23
STANLEY          N/A     29  26  89 S3        29.78F
SALMON         CLOUDY    37  28  70 S8        29.79S WCI  31
CHALLIS        MOCLDY    32  27  81 VRB3      29.80S
$$

IDZ002-004-006-007-026-200800-
NORTHERN IDAHO


CITY           SKY/WX    TMP DP  RH WIND       PRES   REMARKS
LEWISTON       MOCLDY    40  35  83 SE7       29.73R
LOWELL           N/A     35  33  92 N5        29.79R WCI  31
COEUR D`ALENE  MOCLDY    28  27  96 NE7       29.70R WCI  21
MULLAN PASS    CLOUDY    23  22  96 S8        29.64S WCI  14
$$




USA.gov is the U.S. government's official web portal to all federal, state and local government web resources and services.